This is the latest recevied weather packets stored in our database for station/object LU3HGB-WX. If no packets are shown the sender has not sent any weather packets the latest 10 day(s).
| Time | Temp. | Humidity | Pressure | Rain* | Wind** | Luminosity | Snow |
|---|---|---|---|---|---|---|---|
| 1777731759 | 13.33° C | 63% | 1026 hPa | 0 mm | - | 214 W/m² | - |
| 1777731460 | 13.33° C | 63% | 1026 hPa | 0 mm | - | 222 W/m² | - |
| 1777731160 | 12.78° C | 61% | 1026 hPa | 0 mm | - | 241 W/m² | - |
| 1777730860 | 12.78° C | 63% | 1026 hPa | 0 mm | - | 240 W/m² | - |
| 1777730559 | 12.78° C | 63% | 1026 hPa | 0 mm | - | 221 W/m² | - |
| 1777730259 | 12.22° C | 63% | 1027 hPa | 0 mm | - | 237 W/m² | - |
| 1777729960 | 12.22° C | 60% | 1026 hPa | 0 mm | - | 186 W/m² | - |
| 1777729660 | 12.22° C | 65% | 1026 hPa | 0 mm | - | 182 W/m² | - |
| 1777729359 | 12.22° C | 62% | 1026 hPa | 0 mm | - | 186 W/m² | - |
| 1777729061 | 11.67° C | 64% | 1026 hPa | 0 mm | - | 187 W/m² | - |
| 1777728759 | 11.67° C | 65% | 1026 hPa | 0 mm | - | 139 W/m² | - |
| 1777728460 | 11.67° C | 65% | 1026 hPa | 0 mm | - | 123 W/m² | - |
| 1777728159 | 11.67° C | 65% | 1026 hPa | 0 mm | - | 105 W/m² | - |
| 1777727860 | 11.67° C | 67% | 1026 hPa | 0 mm | - | 97 W/m² | - |
| 1777727560 | 11.11° C | 63% | 1026 hPa | 0 mm | - | 94 W/m² | - |
| 1777727260 | 11.11° C | 65% | 1026 hPa | 0 mm | - | 93 W/m² | - |
| 1777726959 | 11.11° C | 66% | 1026 hPa | 0 mm | - | 83 W/m² | - |
| 1777726659 | 11.11° C | 66% | 1026 hPa | 0 mm | - | 73 W/m² | - |
| 1777726360 | 11.11° C | 65% | 1026 hPa | 0 mm | - | 67 W/m² | - |
| 1777726062 | 10.56° C | 70% | 1026 hPa | 0 mm | - | 64 W/m² | - |
| 1777725759 | 10.56° C | 71% | 1026 hPa | 0 mm | - | 56 W/m² | - |
| 1777725460 | 10.56° C | 70% | 1026 hPa | 0 mm | - | 48 W/m² | - |
| 1777725160 | 10.56° C | 70% | 1026 hPa | 0 mm | - | 47 W/m² | - |
| 1777724860 | 10.56° C | 71% | 1026 hPa | 0 mm | - | 40 W/m² | - |
| 1777724559 | 10.56° C | 71% | 1026 hPa | 0 mm | - | 37 W/m² | - |
* Rain latest hour (hover to see other rain measurements)
** Current wind speed in m/s (hover to see current wind gust speed)